User: anonymous   Login
Location: Mississauga
(43.5802°N, 79.6166°W)
Time: 19:20:00
(UTC-04:00)
Language:

Cosmos 1437 Rocket - Orbit

View from above orbital plane
View from above orbital plane
View from above satellite
View from above satellite

Ground track
Ground track

The orbit data is extracted from the following two-line orbital elements,

1 13771U 83003B   15115.45777766  .00003265  00000-0  20746-3 0  9993
2 13771 081.1545 185.8361 0031881 079.9288 280.5530 15.08152206755584
Epoch (UTC): 25 April 2015 10:59:11
Eccentricity: 0.0031881
inclination: 81.1545°
perigee height: 520 km
apogee height: 564 km
right ascension of ascending node: 185.8361°
argument of perigee: 79.9288°
revolutions per day: 15.08152206
mean anomaly at epoch: 280.5530°
orbit number at epoch: 75558

The dashed part of the orbit path shows where the satellite is in the earth's shadow,  

DLR